Flag for Norway Weather past 2 weeks in Gjøvik, Norway

Now
57 °F

Cool.


Feels Like: 57 °F
Forecast: 49 / 67 °F
Wind: 2 mph from Southwest

Location: Lillehammer-Saetherengen

Current Time: Aug 5, 2015 at 1:21:51 PM

Latest Report: Aug 5, 2015 at 12:00 PM


Visibility: N/A

Pressure: 29.89 "Hg

Humidity: 96%

Dew point: 56 °F

Location of GjøvikLocation

Historic Weather in Gjøvik — Graph

°F

Gjøvik temperature yesterday

Maximum temperature yesterday: 56 °F (at 5:00 PM)
Minimum temperature yesterday: 46 °F (at 2:00 AM)
Average temperature yesterday: 52 °F

Past Weeks' High & Low Weather Summary

 TemperatureHumidityPressure
High72 °F (Jul 22, 4:00 PM)96% (Jul 27, 8:00 AM)30.16 "Hg (Jul 27, 8:00 AM)
Low42 °F (Aug 3, 5:00 AM)37% (Jul 22, 4:00 PM)29.35 "Hg (Jul 26, 10:00 PM)
Average55 °F76%29.71 "Hg
* Reported Jul 21 12:00 Noon — Aug 5 12:00 Noon, Gjøvik, Weather by CustomWeather, © 2015

Note: Actual official high and low records may vary slightly from our data, if they occured in-between our weather recording intervals... More about our weather records

Advertising

Gjøvik weather history for previous 24 hours

 ConditionsComfort  
Time TempWeatherWind HumidityBarometerVisibility
12:00 PM
Wed, Aug 5
57 °FCool.2 mph96%29.89 "HgN/A
11:00 AM57 °FCool.1 mph96%29.88 "HgN/A
10:00 AM57 °FCool.1 mph96%29.87 "HgN/A
9:00 AM56 °FCool.1 mph96%29.87 "HgN/A
8:00 AM56 °FCool.1 mph96%29.86 "HgN/A
7:00 AM56 °FCool.1 mph96%29.85 "HgN/A
5:00 AM56 °FCool.1 mph96%29.84 "HgN/A
4:00 AM55 °FCool.2 mph96%29.85 "HgN/A
3:00 AM55 °FCool.1 mph96%29.86 "HgN/A
2:00 AM56 °FCool.No wind96%29.87 "HgN/A
1:00 AM55 °FCool.No wind96%29.88 "HgN/A
12:00 AM55 °FCool.1 mph96%29.90 "HgN/A
11:00 PM
Tue, Aug 4
55 °FCool.1 mph96%29.93 "HgN/A
10:00 PM54 °FCool.1 mph95%29.93 "HgN/A
9:00 PM55 °FCool.1 mph95%29.93 "HgN/A
8:00 PM54 °FCool.1 mph95%29.95 "HgN/A
7:00 PM55 °FCool.1 mph94%29.97 "HgN/A
6:00 PM55 °FCool.1 mph93%30.00 "HgN/A
5:00 PM56 °FCool.No wind93%29.98 "HgN/A
4:00 PM55 °FCool.No wind92%30.01 "HgN/A
3:00 PM54 °FCool.1 mph91%30.01 "HgN/A
2:00 PM54 °FCool.1 mph89%30.01 "HgN/A
1:00 PM53 °FCool.1 mph89%30.02 "HgN/A
Weather by CustomWeather, © 2015

See weather overviewHow to use our weather pages